Météo par heure à Al Khiyam

Ce jour, 31 Octobre, Samedi

Heure Température Précipitation Vent Pression Humidité
00:00 +20°C° 0 mm 2 m/s 711 mmHg 64%
01:00 +21°C° 0 mm 1 m/s 711 mmHg 65%
02:00 +20°C° 0 mm 1 m/s 711 mmHg 66%
03:00 +20°C° 0 mm 1 m/s 711 mmHg 67%
04:00 +20°C° 0 mm 1 m/s 711 mmHg 68%
05:00 +19°C° 0 mm 1 m/s 711 mmHg 70%
06:00 +21°C° 0 mm 1 m/s 711 mmHg 64%
07:00 +23°C° 0 mm 1 m/s 711 mmHg 58%
08:00 +24°C° 0 mm 1 m/s 712 mmHg 52%
09:00 +26°C° 0 mm 2 m/s 712 mmHg 49%
10:00 +27°C° 0 mm 2 m/s 712 mmHg 46%
11:00 +28°C° 0 mm 3 m/s 712 mmHg 43%
12:00 +28°C° 0 mm 4 m/s 711 mmHg 44%
13:00 +28°C° 0 mm 4 m/s 711 mmHg 45%
14:00 +28°C° 0 mm 4 m/s 711 mmHg 46%
15:00 +25°C° 0 mm 3 m/s 710 mmHg 56%
16:00 +22°C° 0 mm 3 m/s 710 mmHg 67%
17:00 +20°C° 0 mm 2 m/s 710 mmHg 77%
18:00 +20°C° 0 mm 2 m/s 710 mmHg 75%
19:00 +20°C° 0 mm 2 m/s 710 mmHg 73%
20:00 +20°C° 0 mm 2 m/s 710 mmHg 71%
21:00 +19°C° 0 mm 2 m/s 710 mmHg 73%
22:00 +20°C° 0 mm 1 m/s 710 mmHg 74%
23:00 +19°C° 0 mm 1 m/s 710 mmHg 75%

Demain, 1 Novembre, Dimanche

Heure Température Précipitation Vent Pression Humidité
00:00 +19°C° 0 mm 1 m/s 710 mmHg 77%
01:00 +18°C° 0 mm 1 m/s 710 mmHg 79%
02:00 +18°C° 0 mm 1 m/s 710 mmHg 81%
03:00 +18°C° 0 mm 1 m/s 710 mmHg 81%
04:00 +18°C° 0 mm 1 m/s 710 mmHg 81%
05:00 +18°C° 0 mm 1 m/s 710 mmHg 82%
06:00 +19°C° 0 mm 1 m/s 711 mmHg 76%
07:00 +21°C° 0 mm 1 m/s 711 mmHg 69%
08:00 +22°C° 0 mm 1 m/s 712 mmHg 63%
09:00 +24°C° 0 mm 2 m/s 712 mmHg 59%
10:00 +25°C° 0 mm 3 m/s 712 mmHg 55%
11:00 +26°C° 0 mm 3 m/s 712 mmHg 51%
12:00 +26°C° 0 mm 3 m/s 712 mmHg 53%
13:00 +26°C° 0 mm 4 m/s 711 mmHg 54%
14:00 +26°C° 0 mm 4 m/s 711 mmHg 56%
15:00 +24°C° 0 mm 3 m/s 711 mmHg 66%
16:00 +21°C° 0 mm 3 m/s 711 mmHg 75%
17:00 +19°C° 0 mm 2 m/s 711 mmHg 85%
18:00 +18°C° 0 mm 2 m/s 711 mmHg 86%
19:00 +19°C° 0 mm 1 m/s 711 mmHg 88%
20:00 +18°C° 0 mm 1 m/s 711 mmHg 90%
21:00 +19°C° 0 mm 1 m/s 711 mmHg 86%
22:00 +19°C° 0 mm 1 m/s 711 mmHg 83%
23:00 +19°C° 0 mm 1 m/s 712 mmHg 79%

Après-demain, 2 Novembre, Lundi

Heure Température Précipitation Vent Pression Humidité
00:00 +20°C° 0 mm 1 m/s 711 mmHg 78%
01:00 +19°C° 0 mm 2 m/s 711 mmHg 78%
02:00 +19°C° 0 mm 2 m/s 711 mmHg 77%
03:00 +19°C° 0 mm 1 m/s 711 mmHg 77%
04:00 +18°C° 0 mm 1 m/s 711 mmHg 76%
05:00 +15°C° 0 mm 0 m/s 711 mmHg 76%
06:00 +17°C° 0 mm 0 m/s 712 mmHg 70%
07:00 +19°C° 0 mm 0 m/s 712 mmHg 64%
08:00 +20°C° 0 mm 0 m/s 713 mmHg 58%
09:00 +23°C° 0 mm 1 m/s 713 mmHg 54%
10:00 +25°C° 0 mm 2 m/s 713 mmHg 51%
11:00 +26°C° 0 mm 3 m/s 713 mmHg 47%
12:00 +26°C° 0.5 mm 3 m/s 713 mmHg 50%
13:00 +26°C° 0.5 mm 4 m/s 712 mmHg 53%
14:00 +25°C° 0.5 mm 4 m/s 712 mmHg 55%
15:00 +24°C° 0.3 mm 3 m/s 712 mmHg 63%
16:00 +21°C° 0.3 mm 3 m/s 712 mmHg 71%
17:00 +19°C° 0.3 mm 2 m/s 712 mmHg 79%
18:00 +19°C° 0.1 mm 2 m/s 712 mmHg 82%
19:00 +19°C° 0.1 mm 1 m/s 712 mmHg 84%
20:00 +18°C° 0.1 mm 1 m/s 712 mmHg 86%
21:00 +18°C° 0 mm 1 m/s 712 mmHg 87%
22:00 +16°C° 0 mm 0 m/s 712 mmHg 88%
23:00 +15°C° 0 mm 0 m/s 712 mmHg 89%

3 Novembre, Mardi

Heure Température Précipitation Vent Pression Humidité
00:00 +15°C° 0 mm 0 m/s 712 mmHg 89%
01:00 +15°C° 0 mm 0 m/s 711 mmHg 89%
02:00 +15°C° 0 mm 0 m/s 711 mmHg 90%
03:00 +14°C° 0 mm 0 m/s 711 mmHg 90%
04:00 +14°C° 0 mm 0 m/s 711 mmHg 90%
05:00 +14°C° 0 mm 0 m/s 711 mmHg 91%
06:00 +15°C° 0 mm 0 m/s 712 mmHg 85%
07:00 +19°C° 0 mm 1 m/s 712 mmHg 79%
08:00 +20°C° 0 mm 1 m/s 712 mmHg 73%
09:00 +20°C° 0.2 mm 2 m/s 712 mmHg 68%
10:00 +21°C° 0.2 mm 2 m/s 712 mmHg 63%
11:00 +24°C° 0.2 mm 3 m/s 713 mmHg 58%
12:00 +22°C° 0.5 mm 3 m/s 712 mmHg 60%
13:00 +22°C° 0.5 mm 4 m/s 712 mmHg 62%
14:00 +22°C° 0.5 mm 4 m/s 711 mmHg 64%
15:00 +21°C° 0.2 mm 3 m/s 711 mmHg 69%
16:00 +20°C° 0.2 mm 3 m/s 711 mmHg 74%
17:00 +19°C° 0.2 mm 2 m/s 711 mmHg 80%
18:00 +18°C° 0 mm 2 m/s 711 mmHg 83%
19:00 +18°C° 0 mm 1 m/s 711 mmHg 85%
20:00 +18°C° 0 mm 1 m/s 711 mmHg 88%
21:00 +18°C° 0 mm 1 m/s 711 mmHg 88%
22:00 +16°C° 0 mm 1 m/s 711 mmHg 88%
23:00 +16°C° 0 mm 1 m/s 711 mmHg 88%

4 Novembre, Mercredi

Heure Température Précipitation Vent Pression Humidité
00:00 +16°C° 0.1 mm 1 m/s 711 mmHg 88%
01:00 +16°C° 0.1 mm 1 m/s 711 mmHg 88%
02:00 +16°C° 0.1 mm 2 m/s 711 mmHg 89%
03:00 +16°C° 0 mm 2 m/s 710 mmHg 88%
04:00 +16°C° 0 mm 1 m/s 710 mmHg 88%
05:00 +15°C° 0 mm 1 m/s 710 mmHg 88%
06:00 +16°C° 0.2 mm 2 m/s 710 mmHg 85%
07:00 +17°C° 0.2 mm 2 m/s 711 mmHg 82%
08:00 +17°C° 0.2 mm 2 m/s 711 mmHg 79%
09:00 +18°C° 0.3 mm 3 m/s 711 mmHg 76%
10:00 +18°C° 0.3 mm 3 m/s 711 mmHg 74%
11:00 +19°C° 0.3 mm 4 m/s 711 mmHg 71%
12:00 +19°C° 0.6 mm 3 m/s 711 mmHg 69%
13:00 +19°C° 0.6 mm 3 m/s 711 mmHg 67%
14:00 +19°C° 0.6 mm 3 m/s 710 mmHg 64%
15:00 +18°C° 1.2 mm 3 m/s 710 mmHg 71%
16:00 +17°C° 1.2 mm 2 m/s 710 mmHg 78%
17:00 +16°C° 1.2 mm 1 m/s 710 mmHg 84%
18:00 +16°C° 0.5 mm 1 m/s 710 mmHg 85%
19:00 +16°C° 0.5 mm 1 m/s 710 mmHg 86%
20:00 +16°C° 0.5 mm 1 m/s 710 mmHg 86%
21:00 +16°C° 0.5 mm 1 m/s 710 mmHg 83%
22:00 +16°C° 0.5 mm 1 m/s 710 mmHg 80%
23:00 +16°C° 0.5 mm 2 m/s 710 mmHg 76%

5 Novembre, Jeudi

Heure Température Précipitation Vent Pression Humidité
00:00 +16°C° 0.3 mm 2 m/s 710 mmHg 75%
01:00 +16°C° 0.3 mm 1 m/s 710 mmHg 74%
02:00 +15°C° 0.3 mm 1 m/s 710 mmHg 73%
03:00 +16°C° 0 mm 1 m/s 710 mmHg 73%
04:00 +16°C° 0 mm 1 m/s 710 mmHg 72%
05:00 +16°C° 0 mm 1 m/s 710 mmHg 72%
06:00 +16°C° 0 mm 1 m/s 710 mmHg 70%
07:00 +18°C° 0 mm 1 m/s 710 mmHg 68%
08:00 +18°C° 0 mm 1 m/s 711 mmHg 66%
09:00 +19°C° 0 mm 1 m/s 711 mmHg 62%
10:00 +19°C° 0 mm 2 m/s 711 mmHg 59%
11:00 +20°C° 0 mm 2 m/s 711 mmHg 55%
12:00 +20°C° 0 mm 2 m/s 711 mmHg 56%
13:00 +20°C° 0 mm 3 m/s 711 mmHg 57%
14:00 +20°C° 0 mm 3 m/s 711 mmHg 58%
15:00 +19°C° 0 mm 3 m/s 710 mmHg 63%
16:00 +19°C° 0 mm 3 m/s 710 mmHg 67%
17:00 +18°C° 0 mm 2 m/s 710 mmHg 71%
18:00 +18°C° 0 mm 2 m/s 710 mmHg 72%
19:00 +18°C° 0 mm 1 m/s 711 mmHg 74%
20:00 +18°C° 0 mm 1 m/s 711 mmHg 75%
21:00 +18°C° 0 mm 1 m/s 711 mmHg 75%
22:00 +16°C° 0 mm 1 m/s 711 mmHg 75%
23:00 +16°C° 0 mm 1 m/s 711 mmHg 75%
Voir plus

Nous avons besoin de votre consentement

Meteoprog et ses fournisseurs de services peuvent stocker et accéder à des données personnelles telles que des cookies, des identifiants d'appareils ou d'autres technologies similaires sur votre appareil et traiter ces données pour personnaliser le contenu et les publicités, ainsi que pour fournir des fonctionnalités de médias sociaux et analyser le trafic.

  • Stocker et/ou accéder à des informations sur votre appareil

    Des cookies, des identifiants d'appareils ou d'autres informations peuvent être stockés ou accessibles sur votre appareil aux fins indiquées ci-dessus.

  • Annonces et contenus personnalisés, mesure des annonces et des contenus, connaissance de l'audience et développement de produits

    Les annonces et le contenu peuvent être personnalisés en fonction d'un profil. D'autres données peuvent être ajoutées pour mieux personnaliser les annonces et le contenu. Les performances des publicités et du contenu peuvent être mesurées. Il est possible d'obtenir des informations sur le public qui a vu les publicités et le contenu. Ces données peuvent être utilisées pour développer ou améliorer l'expérience de l'utilisateur, les systèmes et les logiciels.

En cliquant sur "J'accepte", vous autorisez l'utilisation de cookies, des identifiants d'appareils, des balises web ou d'autres technologies similaires. Vos paramètres peuvent être modifiés dans le navigateur de votre appareil.

Dans certains cas, des intérêts légitimes peuvent être invoqués plutôt qu'un consentement. Vous pouvez en savoir plus à ce sujet dans notre Politique de confidentialité et de cookies.